Location: ????????
(56.1167°N, 38.6333°E)
Time: 21:36:49
(UTC+00:00)

IRS-P3 - Pass Details

Date: 18 November 2025
Orbit: 810 x 816 km, 99.0° (Epoch: 06 December)

Event Time Altitude Azimuth Distance (km) Brightness Sun altitude
Rises 14:47:21 0° 157° (SSE) 3,333 7.2 -12.8°
Reaches altitude 10° 14:49:41 10° 157° (SSE) 2,405 6.5 -13.1°
Maximum altitude 14:55:00 83° 70° (ENE) 829 4.1 -13.9°
Drops below altitude 10° 15:00:22 10° 344° (NNW) 2,418 6.6 -14.6°
Sets 15:02:43 0° 344° (NNW) 3,353 7.4 -14.9°
